Home   Weather   Puyallup   Past weeks
Flag for USA

Past Weather in Puyallup, Washington, USA — Yesterday and Last 2 Weeks

Now
37 °F

Clear.


Feels Like: 37 °F
Forecast: 56 / 28 °F
Wind: No wind

Location: Thun Field

Current Time: Feb 19, 2020 at 8:32:53 pm

Latest Report: Feb 19, 2020 at 7:55 pm


Visibility: 10 mi

Pressure: 30.21 "Hg

Humidity: 75%

Dew Point: 30 °F

Location of PuyallupLocation

Past Weather in Puyallup — Graph

°F

Puyallup Temperature Yesterday

Maximum temperature yesterday: 48 °F (at 1:35 pm)
Minimum temperature yesterday: 25 °F (at 5:35 am)
Average temperature yesterday: 34 °F

High & Low Weather Summary for the Past Weeks

 TemperatureHumidityPressure
High57 °F (Feb 19, 2:35 pm)100% (Feb 5, 12:35 am)30.52 "Hg (Feb 5, 12:35 am)
Low23 °F (Feb 19, 7:35 am)29% (Feb 19, 2:55 pm)29.80 "Hg (Feb 7, 10:55 pm)
Average41 °F91%30.21 "Hg
* Reported Feb 4 7:35 pm — Feb 19 7:15 pm, Puyallup. Weather by CustomWeather, © 2020

Note: Actual official high and low records may vary slightly from our data, if they occured in-between our weather recording intervals... More about our weather records

Puyallup Weather History for the Previous 24 Hours

Scroll right to see more
 ConditionsComfort  
Time TempWeatherWind HumidityBarometerVisibility
7:15 pm
Wed, Feb 19
39 °FClear.No wind65%30.21 "Hg10 mi
6:55 pm39 °FClear.No wind70%30.21 "Hg10 mi
6:35 pm41 °FClear.No wind70%30.21 "Hg10 mi
6:15 pm45 °FClear.No wind53%30.20 "Hg10 mi
5:55 pm45 °FClear.No wind53%30.20 "Hg10 mi
5:35 pm48 °FSunny.No wind46%30.20 "Hg10 mi
4:55 pm55 °FSunny.No wind31%30.19 "Hg10 mi
4:15 pm57 °FSunny.3 mph31%30.20 "Hg10 mi
3:55 pm57 °FSunny.5 mph31%30.21 "Hg10 mi
3:35 pm57 °FSunny.5 mph31%30.21 "Hg10 mi
2:55 pm57 °FSunny.5 mph29%30.22 "Hg10 mi
2:35 pm57 °FSunny.3 mph31%30.23 "Hg10 mi
2:15 pm55 °FSunny.5 mph33%30.23 "Hg10 mi
1:55 pm55 °FSunny.5 mph36%30.24 "Hg10 mi
1:35 pm54 °FSunny.No wind38%30.25 "Hg10 mi
1:15 pm54 °FSunny.5 mph41%30.25 "Hg10 mi
12:55 pm54 °FSunny.3 mph38%30.26 "Hg10 mi
12:35 pm52 °FSunny.No wind41%30.27 "Hg10 mi
12:15 pm50 °FSunny.5 mph43%30.28 "Hg10 mi
11:55 am50 °FSunny.No wind43%30.29 "Hg10 mi
11:35 am50 °FSunny.No wind47%30.30 "Hg10 mi
11:15 am50 °FSunny.No wind43%30.30 "Hg10 mi
10:55 am48 °FSunny.No wind50%30.30 "Hg10 mi
10:35 am46 °FSunny.No wind62%30.30 "Hg10 mi
10:15 am43 °FSunny.No wind76%30.31 "Hg10 mi
9:55 am39 °FSunny.No wind93%30.31 "Hg10 mi
9:35 am39 °FSunny.No wind100%30.30 "Hg10 mi
9:15 am36 °FLight snow. Sunny.No wind100%30.31 "Hg10 mi
8:55 am32 °FSunny.No wind100%30.31 "Hg10 mi
8:35 am28 °FSunny.No wind100%30.31 "Hg10 mi
8:15 am27 °FSunny.No wind100%30.31 "Hg10 mi
7:55 am25 °FSunny.No wind100%30.31 "Hg10 mi
7:35 am23 °FSunny.No wind100%30.30 "Hg10 mi
7:15 am25 °FSunny.No wind100%30.30 "Hg10 mi
6:55 am25 °FClear.No wind100%30.30 "Hg10 mi
6:35 am25 °FClear.No wind100%30.30 "Hg10 mi
5:55 am25 °FClear.No wind100%30.31 "Hg10 mi
5:35 am25 °FClear.No wind100%30.31 "Hg10 mi
5:15 am25 °FClear.No wind100%30.31 "Hg10 mi
4:55 am25 °FClear.No wind100%30.31 "Hg10 mi
4:35 am27 °FClear.No wind100%30.31 "Hg10 mi
4:15 am27 °FLight mixture of precip. Clear.No wind100%30.31 "Hg10 mi
3:55 am25 °FLight mixture of precip. Clear.No wind100%30.32 "Hg10 mi
3:35 am27 °FLight mixture of precip. Clear.No wind100%30.31 "Hg10 mi
3:15 am27 °FClear.No wind100%30.32 "Hg10 mi
2:55 am27 °FClear.No wind100%30.32 "Hg10 mi
2:35 am27 °FClear.No wind100%30.33 "Hg10 mi
2:15 am27 °FClear.No wind100%30.33 "Hg10 mi
1:55 am27 °FClear.No wind100%30.33 "Hg10 mi
1:35 am27 °FClear.No wind100%30.33 "Hg10 mi
12:55 am27 °FClear.No wind100%30.33 "Hg10 mi
12:35 am28 °FClear.No wind100%30.33 "Hg10 mi
12:15 am27 °FClear.No wind100%30.33 "Hg10 mi
11:55 pm
Tue, Feb 18
28 °FClear.No wind100%30.33 "Hg10 mi
11:35 pm28 °FClear.No wind100%30.34 "Hg10 mi
11:15 pm28 °FClear.No wind100%30.33 "Hg10 mi
10:55 pm28 °FClear.No wind100%30.33 "Hg10 mi
10:35 pm30 °FClear.No wind100%30.34 "Hg10 mi
10:15 pm30 °FClear.No wind100%30.34 "Hg10 mi
9:55 pm30 °FClear.No wind100%30.34 "Hg10 mi
9:35 pm30 °FClear.No wind100%30.34 "Hg10 mi
8:55 pm32 °FClear.No wind100%30.33 "Hg10 mi
8:35 pm32 °FClear.No wind100%30.33 "Hg10 mi
Weather by CustomWeather, © 2020

See weather overview

Advertising